TimeMST,TemperatureF,Dew PointF,Humidity,Sea Level PressureIn,VisibilityMPH,Wind Direction,Wind SpeedMPH,Gust SpeedMPH,PrecipitationIn,Events,Conditions,WindDirDegrees,DateUTC
12:56 AM,28.0,19.9,72,29.73,-9999.0,NW,17.3,-,N/A,,Unknown,310,2014-01-11 07:56:00
1:56 AM,28.9,21.0,72,29.75,-9999.0,NW,21.9,-,N/A,,Unknown,310,2014-01-11 08:56:00
2:56 AM,28.0,19.9,72,29.77,-9999.0,WNW,21.9,28.8,N/A,,Unknown,300,2014-01-11 09:56:00
3:56 AM,27.0,19.9,75,29.81,-9999.0,WNW,18.4,-,N/A,,Unknown,290,2014-01-11 10:56:00
4:56 AM,25.0,19.9,81,29.83,-9999.0,West,13.8,-,N/A,,Unknown,280,2014-01-11 11:56:00
5:56 AM,25.0,21.0,85,29.83,-9999.0,West,13.8,-,N/A,,Unknown,270,2014-01-11 12:56:00
6:56 AM,24.1,19.9,84,29.85,-9999.0,West,11.5,-,N/A,,Unknown,280,2014-01-11 13:56:00
7:56 AM,26.1,19.9,78,29.83,-9999.0,West,13.8,-,N/A,,Unknown,280,2014-01-11 14:56:00
8:56 AM,28.9,21.0,72,29.84,-9999.0,WNW,12.7,-,N/A,,Unknown,290,2014-01-11 15:56:00
9:56 AM,32.0,23.0,69,29.83,-9999.0,West,6.9,-,N/A,,Unknown,260,2014-01-11 16:56:00
10:56 AM,36.0,25.0,64,29.79,-9999.0,WSW,8.1,-,N/A,,Unknown,240,2014-01-11 17:56:00
11:56 AM,37.0,27.0,67,29.72,-9999.0,WSW,12.7,-,N/A,,Unknown,240,2014-01-11 18:56:00
12:56 PM,34.0,27.0,75,29.68,-9999.0,South,12.7,-,N/A,,Unknown,180,2014-01-11 19:56:00
1:56 PM,35.1,28.0,76,29.63,-9999.0,SSE,12.7,-,N/A,,Unknown,160,2014-01-11 20:56:00
2:56 PM,36.0,28.9,76,29.60,-9999.0,SSE,15.0,-,N/A,,Unknown,160,2014-01-11 21:56:00
3:56 PM,35.1,28.0,76,29.56,-9999.0,SSE,17.3,-,N/A,,Unknown,160,2014-01-11 22:56:00
4:56 PM,33.1,27.0,78,29.52,-9999.0,SSE,17.3,-,N/A,,Unknown,160,2014-01-11 23:56:00
5:56 PM,32.0,27.0,82,29.49,-9999.0,SSE,15.0,-,N/A,,Unknown,160,2014-01-12 00:56:00
6:56 PM,32.0,27.0,82,29.45,-9999.0,North,-9999.0,-,N/A,,Unknown,0,2014-01-12 01:56:00
7:56 PM,33.1,27.0,78,29.40,-9999.0,North,-9999.0,-,N/A,,Unknown,0,2014-01-12 02:56:00
8:56 PM,35.1,28.9,78,29.39,-9999.0,North,-9999.0,-,N/A,,Unknown,0,2014-01-12 03:56:00
9:56 PM,37.0,30.0,76,29.38,-9999.0,North,-9999.0,-,N/A,,Unknown,0,2014-01-12 04:56:00
10:56 PM,42.1,30.9,65,29.35,-9999.0,SW,11.5,-,N/A,,Unknown,220,2014-01-12 05:56:00
11:56 PM,39.9,30.9,70,29.40,-9999.0,North,-9999.0,-,N/A,,Unknown,0,2014-01-12 06:56:00